Vorticity
4 4 4 4 5 5 5 6 7 7 6 6 6 5 7 7 6 7 8 9 6 12 -0 3 4 2 6 3 7 7 5 6 6 7 8 6 3 9 5 7 10 4 12 6 16 12 7
4 4 4 4 5 5 5 6 7 8 9 8 7 5 5 6 7 7 8 8 9 7 7 2 4 10 2 8 6 6 6 5 5 5 8 5 3 6 3 6 7 8 8 9 3 15 4
5 5 5 5 5 6 6 6 6 7 7 9 9 6 5 6 7 6 7 7 8 11 15 2 6 12 2 5 4 5 5 4 5 4 6 6 5 3 1 13 9 9 6 9 -12 1 6
5 6 6 7 6 6 6 6 7 9 9 8 9 9 5 6 7 7 7 7 8 9 11 4 6 12 2 5 6 4 4 5 5 5 4 5 6 5 3 1 8 5 0 3 24 -3 8
6 7 7 7 7 6 6 5 5 5 7 10 9 10 8 6 6 6 7 6 10 10 14 4 6 16 -2 6 7 7 5 5 3 3 6 7 5 8 3 3 17 7 -1 5 14 27 6
6 7 8 8 7 6 5 5 4 5 6 7 9 10 10 8 6 7 8 6 9 19 7 1 5 15 1 7 9 8 7 8 8 5 7 5 10 7 3 4 -7 -12 1 2 14 13 2
7 7 7 7 6 6 5 5 5 5 6 6 6 8 10 10 8 5 7 3 7 12 11 8 2 8 4 8 10 5 6 8 8 9 7 7 16 4 7 6 6 3 7 12 13 -5 16
5 6 6 7 6 6 6 5 5 5 5 6 7 6 7 9 10 7 7 7 6 10 23 -0 0 3 7 8 8 8 7 7 9 12 5 11 13 5 13 6 5 10 8 5 15 15 16
4 4 5 7 7 6 6 6 5 5 5 4 4 5 6 6 8 8 8 7 6 9 28 -4 1 5 6 8 3 7 8 11 9 8 5 14 1 11 10 10 3 4 12 3 11 9 19
5 5 4 5 7 7 6 6 6 5 5 4 4 3 3 4 6 5 6 8 7 9 30 3 1 5 8 8 0 7 8 10 8 2 22 15 6 8 7 8 5 14 -1 6 26 13 13
4 4 2 1 3 5 6 5 5 5 5 5 5 4 4 3 3 4 5 5 7 18 12 14 4 5 8 6 6 -1 8 5 6 9 9 8 11 9 8 -3 17 -4 9 33 12 10 18
5 3 7 8 6 6 6 6 6 5 6 5 5 4 5 5 4 4 4 5 6 20 14 7 1 2 4 6 5 2 7 10 10 6 -0 9 6 10 14 2 24 2 14 30 16 10 15
7 7 5 5 6 6 6 6 6 5 5 6 5 6 6 5 5 5 5 6 28 14 8 15 -6 2 3 11 3 8 3 11 5 10 -11 19 7 -5 1 7 17 9 21 4 16 10 -6
6 6 6 6 8 8 6 6 6 5 6 6 6 7 6 6 7 7 6 10 17 0 0 -14 17 -4 5 17 8 -3 7 2 13 6 13 3 11 3 -2 6 6 5 7 18 13 5 -13
5 5 6 6 6 5 5 7 9 6 7 7 7 7 7 7 6 8 8 14 -20 -2 11 15 -9 26 27 18 -3 11 14 24 7 7 8 14 -1 15 7 19 9 4 1 12 15 22 13
15 10 9 9 8 8 7 4 5 6 7 7 7 6 7 5 8 9 9 1 -7 -12 -17 -11 9 7 2 4 4 15 15 5 6 9 -1 -1 9 20 -13 26 4 10 12 9 9 11 16
9 9 14 14 16 16 16 18 16 11 8 7 8 8 10 12 10 11 6 4 8 11 9 9 12 10 -5 -6 3 6 2 -7 18 19 0 4 24 -21 14 10 5 17 9 7 15 12 5
7 6 8 9 10 9 10 10 8 13 16 15 12 13 18 14 17 9 9 13 14 10 15 9 1 -4 -7 7 13 10 -2 8 -15 9 2 3 7 -2 9 18 9 13 6 6 12 5 -1
18 16 15 14 15 15 16 15 15 15 14 16 12 13 14 13 7 8 10 5 7 8 3 1 1 2 9 6 10 36 21 5 5 7 4 -7 2 12 7 27 -1 -5 4 10 -9 34 17
13 16 16 17 15 17 16 15 17 16 15 16 18 18 17 20 20 17 11 10 10 9 9 13 9 7 8 10 14 -5 -4 3 -1 3 1 12 3 -8 -33 -22 -10 1 5 8 7 14 1
8 8 8 8 8 9 9 9 10 10 11 13 12 14 5 -5 8 21 20 1 -3 20 26 13 27 35 31 19 14 9 -1 8 19 20 12 11 -2 14 3 6 6 -3 5 15 8 9 3
8 8 7 7 8 8 9 8 8 8 8 11 12 12 10 8 12 14 0 -2 3 14 -8 -14 -5 -7 -10 -8 -7 -2 5 4 -4 -2 -1 3 2 8 3 6 -1 15 7 7 7 21 11
8 8 8 8 8 7 7 8 9 11 11 11 8 8 7 5 8 11 15 15 12 15 21 16 9 10 13 9 7 6 4 2 -1 5 4 9 14 8 6 23 19 49 5 22 29 2 11
7 8 7 9 9 9 9 10 11 13 13 12 11 13 11 6 6 6 8 10 9 6 3 4 3 3 9 7 14 10 6 10 5 1 -1 16 8 7 6 27 29 8 35 22 -6 7 5
7 8 8 8 9 10 9 9 10 10 14 14 13 12 11 10 11 9 11 8 8 12 12 15 16 9 5 9 13 50 31 25 16 5 0 8 4 -8 -7 -5 -43 -29 -42 -23 -13 15 -2
10 10 11 10 10 7 10 15 12 10 14 14 14 10 7 6 38 -9 5 -16 -19 4 13 11 15 19 41 24 10 13 -9 -13 15 14 61 21 15 9 -13 -3 -9 4 21 18 34 21 -20
8 9 9 10 11 11 12 11 13 16 1 8 13 9 13 10 33 33 28 14 -14 -5 -14 13 15 20 19 17 14 17 16 -17 13 -22 -19 16 38 -2 11 -11 26 9 -18 4 8 -38 27
9 10 10 9 9 9 9 11 9 6 7 5 7 10 5 9 5 35 65 8 -10 4 -1 -10 -1 45 50 36 12 26 14 0 24 13 -6 6 -14 5 38 5 33 20 28 -7 16 11 32
12 11 11 11 11 12 13 16 19 9 5 6 4 6 5 4 -22 3 7 -6 34 40 4 6 6 -14 -13 -24 -11 28 11 -17 2 13 37 16 -12 -24 -18 -37 -30 -42 -43 -6 6 18 9
Height
3170 3170 3170 3169 3169 3168 3167 3166 3165 3163 3162 3160 3159 3157 3155 3154 3152 3150 3148 3147 3146 3144 3144 3142 3140 3138 3135 3133 3131 3127 3125 3122 3119 3116 3113 3110 3107 3104 3100 3098 3095 3090 3087 3083 3080 3077 3073
3170 3170 3170 3169 3169 3168 3167 3166 3165 3163 3161 3160 3158 3157 3155 3153 3151 3150 3148 3146 3145 3143 3142 3141 3139 3138 3135 3134 3130 3127 3124 3122 3118 3116 3113 3110 3107 3104 3100 3098 3094 3090 3086 3082 3080 3076 3072
3171 3171 3170 3170 3169 3168 3167 3166 3165 3163 3161 3159 3158 3156 3154 3153 3151 3149 3147 3146 3144 3143 3141 3140 3139 3136 3135 3134 3129 3127 3125 3122 3118 3116 3113 3110 3107 3104 3100 3096 3093 3090 3086 3082 3078 3073 3068
3170 3170 3170 3170 3169 3168 3168 3166 3165 3163 3161 3159 3157 3156 3154 3153 3150 3149 3147 3145 3143 3141 3139 3138 3137 3135 3134 3131 3128 3126 3124 3122 3119 3116 3113 3109 3106 3104 3100 3096 3092 3088 3083 3078 3076 3071 3067
3170 3170 3169 3169 3169 3168 3167 3166 3165 3163 3160 3159 3157 3155 3153 3152 3150 3148 3146 3144 3142 3140 3138 3137 3136 3134 3133 3130 3128 3125 3123 3120 3117 3115 3112 3108 3106 3103 3099 3094 3091 3086 3081 3077 3071 3069 3064
3169 3169 3169 3168 3168 3167 3167 3166 3164 3162 3160 3158 3156 3154 3152 3151 3149 3147 3145 3143 3140 3138 3137 3136 3135 3135 3132 3130 3127 3125 3122 3119 3116 3113 3110 3107 3104 3101 3098 3094 3090 3084 3079 3075 3070 3066 3061
3167 3168 3167 3166 3166 3166 3165 3164 3163 3161 3159 3157 3155 3153 3152 3150 3148 3146 3145 3142 3142 3139 3135 3134 3134 3132 3130 3128 3125 3123 3120 3118 3115 3112 3108 3104 3102 3100 3097 3093 3089 3084 3079 3073 3068 3065 3058
3166 3166 3166 3165 3164 3164 3163 3162 3161 3160 3159 3157 3155 3153 3151 3149 3147 3146 3144 3141 3139 3138 3134 3132 3132 3130 3128 3126 3124 3122 3119 3117 3114 3110 3106 3104 3100 3097 3094 3091 3087 3082 3077 3072 3066 3062 3057
3163 3163 3162 3162 3162 3161 3160 3160 3159 3158 3157 3156 3154 3152 3150 3148 3146 3145 3142 3140 3138 3135 3133 3131 3130 3129 3127 3126 3123 3121 3119 3115 3112 3108 3104 3100 3099 3095 3092 3089 3084 3080 3076 3070 3067 3061 3057
3160 3160 3159 3159 3158 3159 3158 3157 3156 3155 3154 3153 3152 3151 3149 3147 3147 3143 3141 3138 3136 3133 3131 3131 3129 3127 3126 3123 3122 3119 3116 3116 3112 3108 3104 3100 3097 3094 3091 3089 3084 3076 3073 3069 3064 3061 3058
3157 3156 3156 3155 3154 3154 3154 3153 3153 3152 3151 3150 3149 3148 3147 3145 3144 3142 3141 3137 3135 3133 3131 3129 3127 3126 3124 3124 3122 3119 3116 3112 3110 3108 3106 3103 3097 3093 3091 3088 3083 3079 3072 3066 3062 3061 3059
3153 3152 3152 3151 3150 3150 3150 3149 3148 3147 3147 3146 3145 3145 3143 3142 3141 3140 3138 3136 3134 3134 3127 3126 3124 3123 3122 3120 3119 3117 3115 3112 3109 3105 3103 3100 3096 3093 3089 3088 3083 3078 3072 3064 3062 3060 3059
3150 3149 3148 3147 3146 3145 3144 3144 3144 3143 3142 3141 3140 3141 3140 3138 3138 3136 3135 3134 3134 3129 3127 3125 3123 3121 3120 3118 3117 3115 3113 3110 3109 3105 3102 3099 3096 3093 3089 3085 3082 3079 3072 3067 3067 3064 3062
3145 3144 3143 3143 3141 3140 3140 3139 3138 3137 3137 3136 3135 3135 3134 3133 3133 3132 3132 3132 3130 3125 3124 3122 3121 3119 3117 3116 3114 3112 3110 3108 3106 3104 3101 3098 3095 3093 3090 3087 3083 3080 3079 3079 3079 3074 3064
3138 3138 3137 3137 3135 3133 3132 3132 3132 3132 3130 3130 3129 3129 3129 3128 3127 3127 3128 3126 3124 3122 3120 3119 3118 3116 3114 3113 3113 3110 3108 3105 3104 3103 3103 3098 3093 3091 3089 3086 3085 3082 3080 3079 3076 3071 3069
3134 3132 3130 3129 3128 3127 3126 3124 3124 3124 3123 3123 3123 3123 3123 3122 3121 3121 3120 3118 3117 3117 3117 3116 3115 3114 3112 3111 3110 3108 3106 3104 3102 3100 3099 3098 3093 3089 3088 3086 3085 3083 3082 3079 3077 3075 3069
3127 3125 3124 3122 3121 3118 3118 3117 3116 3115 3114 3114 3114 3114 3114 3114 3114 3113 3110 3110 3111 3111 3111 3111 3109 3108 3107 3106 3106 3104 3103 3101 3098 3097 3096 3094 3094 3090 3087 3085 3082 3082 3081 3080 3079 3076 3074
3119 3118 3116 3114 3113 3112 3110 3108 3106 3106 3106 3106 3104 3106 3104 3103 3106 3102 3101 3103 3105 3104 3105 3105 3103 3103 3102 3102 3098 3099 3097 3097 3095 3094 3093 3092 3089 3085 3084 3082 3080 3079 3079 3078 3077 3075 3073
3111 3109 3107 3106 3105 3103 3103 3101 3100 3098 3097 3098 3096 3096 3097 3096 3096 3094 3095 3095 3097 3096 3098 3097 3096 3096 3096 3096 3096 3091 3091 3092 3090 3090 3088 3087 3085 3083 3081 3081 3078 3076 3076 3076 3075 3072 3068
3104 3103 3101 3100 3099 3097 3095 3094 3094 3091 3090 3090 3091 3089 3088 3087 3087 3086 3086 3086 3087 3088 3087 3089 3088 3089 3089 3089 3089 3086 3087 3087 3086 3085 3084 3083 3081 3080 3078 3077 3076 3074 3071 3070 3071 3069 3062
3100 3098 3096 3094 3093 3091 3090 3090 3088 3086 3085 3085 3083 3081 3079 3080 3079 3080 3079 3078 3079 3081 3081 3080 3080 3083 3084 3083 3082 3081 3082 3081 3081 3079 3078 3077 3073 3074 3072 3071 3069 3067 3064 3063 3061 3059 3058
3096 3093 3091 3089 3088 3086 3085 3083 3082 3081 3079 3079 3078 3077 3074 3074 3074 3074 3074 3071 3072 3075 3075 3076 3074 3075 3075 3075 3076 3075 3075 3074 3072 3073 3072 3071 3067 3066 3062 3066 3062 3057 3057 3055 3052 3050 3047
3092 3090 3087 3085 3082 3080 3079 3077 3076 3074 3072 3071 3071 3069 3068 3066 3066 3067 3067 3067 3066 3064 3066 3067 3065 3064 3065 3068 3068 3065 3065 3064 3064 3064 3065 3065 3064 3062 3054 3059 3056 3048 3046 3046 3043 3043 3042
3085 3083 3081 3080 3078 3074 3073 3071 3070 3069 3067 3066 3064 3063 3061 3057 3058 3059 3058 3059 3059 3060 3055 3055 3058 3057 3057 3058 3055 3054 3053 3053 3053 3053 3056 3056 3057 3057 3052 3054 3048 3038 3038 3038 3038 3037 3036
3078 3076 3074 3072 3070 3069 3066 3065 3063 3062 3061 3060 3057 3057 3054 3049 3049 3050 3050 3047 3047 3047 3046 3045 3047 3049 3050 3048 3046 3043 3042 3042 3039 3042 3043 3046 3049 3050 3048 3045 3032 3033 3036 3034 3032 3030 3031
3072 3069 3067 3065 3063 3060 3059 3057 3056 3054 3053 3052 3051 3049 3047 3042 3040 3040 3039 3040 3038 3037 3037 3037 3039 3040 3040 3038 3040 3035 3037 3034 3033 3029 3028 3033 3037 3042 3039 3038 3028 3025 3027 3025 3025 3020 3026
3064 3062 3060 3057 3055 3054 3052 3050 3048 3048 3046 3043 3045 3041 3040 3036 3033 3034 3033 3032 3032 3032 3028 3027 3027 3031 3034 3031 3030 3028 3024 3028 3023 3022 3025 3026 3027 3027 3029 3030 3014 3016 3025 3023 3023 3020 3018
3055 3053 3051 3048 3046 3045 3044 3043 3043 3042 3041 3038 3037 3036 3032 3026 3022 3023 3026 3027 3024 3026 3023 3020 3019 3021 3020 3023 3023 3019 3012 3011 3010 3011 3013 3017 3020 3018 3024 3024 3008 3008 3014 3016 3013 3012 3014
3047 3044 3042 3040 3038 3036 3035 3035 3035 3035 3035 3034 3028 3031 3026 3020 3014 3016 3017 3017 3018 3018 3015 3013 3012 3014 3020 3017 3016 3011 3006 3000 3000 2993 3004 3003 3004 3007 3008 2998 3001 3004 3006 3009 3009 3009 3008